Other Public Products
Issued by NWS Grand Forks, ND

Home | Current Version | Previous Version | Graphics & Text | Print | Product List | Glossary On
Versions: 1 2 3 4 5 6 7 8 9 10 11 12 13 14 15 16 17 18 19 20 21 22 23 24 25 26 27 28 29 30 31 32 33 34 35 36 37 38 39 40 41 42 43 44 45 46 47 48 49 50
000
FPUS83 KFGF 270631
OPUFGF
PRAIRIE TO PINES WEATHER ROUNDUP
NATIONAL WEATHER SERVICE EASTERN NORTH DAKOTA/GRAND FORKS ND
100 AM CDT WED AUG 27 2014

 **SATELLITE DATA USED TO AUGMENT SKY COVER AT AUTOMATED STATIONS**
 *****  WEATHER ACROSS EASTERN NORTH DAKOTA  *****

CITY           SKY/WX    TMP DP  RH WIND       PRES   REMARKS
GRAND FORKS    FAIR      53  51  93 SW6       30.16R
6HR MIN TEMP:  53; 6HR MAX TEMP:  68;

GRAND FORKS AF FAIR      53  53  99 SW6       30.17R
GRAND CITY NWS   N/A     54 N/A N/A SW3         N/A
BUXTON           N/A     55  55  99 SW5         N/A
DEVILS LAKE    FAIR      57  50  77 SW8       30.16R
6HR MIN TEMP:  54; 6HR MAX TEMP:  68;

FARGO          FAIR      57  56  96 CALM      30.18F
6HR MIN TEMP:  55; 6HR MAX TEMP:  66; 6HR PCP:  0.04;

WAHPETON ARPT  CLOUDY    59  55  88 CALM      30.20S
$$

 *****  WEATHER ACROSS CENTRAL AND WESTERN NORTH DAKOTA  *****

CITY           SKY/WX    TMP DP  RH WIND       PRES   REMARKS
JAMESTOWN      FOG       51  49  92 CALM      30.19S VSB 1/4
6HR MIN TEMP:  51; 6HR MAX TEMP:  59; 6HR PCP: TRACE;

BISMARCK       CLOUDY    56  54  93 E3        30.19S
6HR MIN TEMP:  55; 6HR MAX TEMP:  60;

MINOT          FAIR      57  51  80 SW8       30.15S
6HR MIN TEMP:  55; 6HR MAX TEMP:  69;

MINOT AFB      FAIR      52  52  99 SW8       30.14S
6HR MIN TEMP:  50; 6HR MAX TEMP:  69;

GARRISON         N/A     53  52  96 SW3       30.17S
6HR MIN TEMP:  52; 6HR MAX TEMP:  66;

WILLISTON      CLEAR     50  47  89 CALM      30.12S
6HR MIN TEMP:  50; 6HR MAX TEMP:  73;

DICKINSON      CLEAR     51  50  96 S8        30.16F
6HR MIN TEMP:  50; 6HR MAX TEMP:  64;

HETTINGER      CLEAR     50  48  93 NE5       30.19F
6HR MIN TEMP:  50; 6HR MAX TEMP:  65;

$$

 *****  OTHER OBSERVATIONS NORTHEAST NORTH DAKOTA  *****

CITY           SKY/WX    TMP DP  RH WIND       PRES   REMARKS
WALHALLA         N/A     48  48 100 CALM      30.15S
LANGDON        FAIR      45  43  93 SW3       30.16S
CAVALIER       FAIR      48  48 100 CALM      30.14S
GRAFTON        FAIR      46  46 100 SW5       30.15R
CANDO          FAIR      48  46  93 CALM      30.17S
FORT TOTTEN      N/A     53  52  95 S3        29.95S
ROLLA          FAIR      45  45 100 SW6       30.17S
RUGBY          FAIR      50  50 100 SW7       30.16S
 ***** THE ABOVE OBSERVATIONS ARE NON NWS ARE NOT QUALITY
        CONTROLLED AND MAY MIS-REPORT RAIN FOR SNOW...
$$

 *****  OTHER OBSERVATIONS SOUTHEAST NORTH DAKOTA *****

CITY           SKY/WX    TMP DP  RH WIND       PRES   REMARKS
COOPERSTOWN    NOT AVBL
VALLEY CITY    FAIR      50  50 100 SW3       30.19S FOG
OAKES            N/A     57  57 100 SE5       30.19S
GWINNER        MOCLDY    57  57 100 E3        30.20S
SHEYENNE NWR     N/A     58  57  97 CALM      29.95S
BUFFALO          N/A     55  52  92 CALM        N/A
WYNDMERE       NOT AVBL
 ***** THE ABOVE OBSERVATIONS ARE NON NWS ARE NOT QUALITY
       CONTROLLED AND MAY MIS-REPORT RAIN FOR SNOW...
$$

  *****  WEATHER ACROSS NORTHERN MINNESOTA  *****

CITY           SKY/WX    TMP DP  RH WIND       PRES   REMARKS
FLAG ISLAND    FAIR      55  46  71 SW8       30.15S
WARROAD        MOCLDY    46  45  93 S5        30.19R
ROSEAU         MOCLDY    46  43  87 S5        30.18S
HALLOCK        FAIR      52  48  87 SE10      30.15S
THF RVR FALLS  FAIR      50  46  87 SE3       30.18S
6HR MIN TEMP:  50; 6HR MAX TEMP:  63;

HALSTAD          N/A     53  52  97 S3          N/A
FOSSTON        FAIR      46  45  93 CALM      30.20S
BAUDETTE       FAIR      45  43  93 SW5       30.19R
6HR MIN TEMP:  45; 6HR MAX TEMP:  57;

WASKISH        FAIR      43  41  93 CALM      30.20S FOG
CROOKSTON      FAIR      52  50  93 S3        30.19R
$$
  *****  WEATHER ACROSS CENTRAL AND WEST MINNESOTA  *****

CITY           SKY/WX    TMP DP  RH WIND       PRES   REMARKS
BEMIDJI        FAIR      51  50  99 CALM      30.19S FOG
PARK RAPIDS    CLOUDY    57  56  96 CALM      30.20R
6HR MIN TEMP:  57; 6HR MAX TEMP:  63; 6HR PCP:  0.01;

WADENA         CLOUDY    57  55  94 CALM      30.21S
DETROIT LAKES  CLOUDY    59  55  88 S6        30.21S
MOORHEAD       FAIR      57  57 100 CALM      30.20S
FERGUS FALLS   CLOUDY    59  57  94 CALM      30.21R
ELBOW LAKE     LGT RAIN  57  56  97 CALM      30.20F
6HR MIN TEMP:  57; 6HR MAX TEMP:  63; 6HR PCP:  0.23;

MORRIS MN      MOCLDY    59  57  94 CALM      30.19F
STAPLES        CLOUDY    55  55 100 CALM      30.22R
WHEATON        CLOUDY    57  55  94 NE3       30.22S
$$
  *****  WEATHER ELSEWHERE ACROSS MINNESOTA  *****

CITY           SKY/WX    TMP DP  RH WIND       PRES   REMARKS
DULUTH         LGT RAIN  55  49  80 N5        30.19R
6HR MIN TEMP:  54; 6HR MAX TEMP:  63; 6HR PCP:  0.02;

INTRNTL FALLS  FAIR      40  39  97 CALM      30.17S
6HR MIN TEMP:  39; 6HR MAX TEMP:  56;

ELY            FAIR      48  46  93 CALM      30.18S
CLOQUET        LGT RAIN  54  52  94 CALM      30.21R
BRAINERD       LGT RAIN  56  54  93 CALM      30.22R
6HR MIN TEMP:  56; 6HR MAX TEMP:  62;

HIBBING        FAIR      49  47  93 CALM      30.20S FOG
6HR MIN TEMP:  51; 6HR MAX TEMP:  61; 6HR PCP: TRACE;

ALEXANDRIA     CLOUDY    59  57  93 NW3       30.24R
6HR MIN TEMP:  59; 6HR MAX TEMP:  64; 6HR PCP:  0.09;

SAINT CLOUD    CLOUDY    63  58  83 SW3       30.21R
6HR MIN TEMP:  62; 6HR MAX TEMP:  69; 6HR PCP:  0.01;

MINNEAPOLIS    LGT RAIN  65  57  75 NE7       30.19S
6HR MIN TEMP:  65; 6HR MAX TEMP:  72; 6HR PCP: TRACE;

$$

  *****  WEATHER ACROSS SOUTH DAKOTA  *****

CITY           SKY/WX    TMP DP  RH WIND       PRES   REMARKS
SIOUX FALLS    MOCLDY    61  58  90 CALM      30.18S
6HR MIN TEMP:  61; 6HR MAX TEMP:  70;

BROOKINGS      NOT AVBL
WATERTOWN      CLOUDY    59  54  83 SE6       30.19S
6HR MIN TEMP:  57; 6HR MAX TEMP:  64;

HURON          MOCLDY    62  58  86 SE5       30.15F
6HR MIN TEMP:  59; 6HR MAX TEMP:  69;

SISSETON         N/A     59  58  96 CALM      30.19R
ABERDEEN       CLOUDY    57  56  96 NE3       30.19S
6HR MIN TEMP:  57; 6HR MAX TEMP:  61;

MITCHELL       MOCLDY    60  58  92 E3        30.16F
PIERRE         PTCLDY    57  54  89 NE10      30.13F
6HR MIN TEMP:  56; 6HR MAX TEMP:  73;

MOBRIDGE       CLOUDY    59  55  87 SE5       30.16R
RAPID CITY     MOCLDY    60  54  80 N3        30.17S
6HR MIN TEMP:  60; 6HR MAX TEMP:  76;

$$

  *****  SOME WEATHER IN NEARBY STATES *****

CITY           SKY/WX    TMP DP  RH WIND       PRES   REMARKS
GLASGOW MT     CLEAR     58  50  75 E10       30.06F
6HR MIN TEMP:  58; 6HR MAX TEMP:  74;

GREAT FALLS MT CLEAR     60  44  55 SW10      30.06S
6HR MIN TEMP:  59; 6HR MAX TEMP:  78;

CHEYENNE WY    MOCLDY    58  51  78 CALM      30.25F
6HR MIN TEMP:  58; 6HR MAX TEMP:  71;

SCOTTSBLUFF NE PTCLDY    64  62  93 SE5       30.14R
6HR MIN TEMP:  63; 6HR MAX TEMP:  72; 6HR PCP:  0.04;

OMAHA NE       MOCLDY    69  66  90 NW3       30.13R
6HR MIN TEMP:  68; 6HR MAX TEMP:  74;

DES MOINES IA  MOCLDY    72  65  78 NE7       30.13S
6HR MIN TEMP:  72; 6HR MAX TEMP:  79;

DAVENPORT IA   FAIR      67  64  90 NE3       30.14R
6HR MIN TEMP:  66; 6HR MAX TEMP:  79;

CHICAGO IL     MOCLDY    72  63  73 NE7       30.10F
6HR MIN TEMP:  71; 6HR MAX TEMP:  80;

EAU CLAIRE WI  MOCLDY    63  56  78 N6        30.17R
6HR MIN TEMP:  61; 6HR MAX TEMP:  68;

LA CROSSE WI   FAIR      65  59  81 N3        30.16R
6HR MIN TEMP:  64; 6HR MAX TEMP:  72;

$$

  *****  SOME NATIONAL WEATHER *****

CITY           SKY/WX    TMP DP  RH WIND       PRES   REMARKS



USA.gov is the U.S. government's official web portal to all federal, state and local government web resources and services.